TimeCDT,TemperatureF,Dew PointF,Humidity,Sea Level PressureIn,VisibilityMPH,Wind Direction,Wind SpeedMPH,Gust SpeedMPH,PrecipitationIn,Events,Conditions,WindDirDegrees,DateUTC
12:53 AM,66.0,37.9,36,30.04,10.0,SSE,5.8,-,N/A,,Clear,160,2013-09-06 05:53:00
1:53 AM,64.0,37.9,38,30.04,10.0,SSW,4.6,-,N/A,,Clear,200,2013-09-06 06:53:00
2:53 AM,64.0,37.9,38,30.03,10.0,South,5.8,-,N/A,,Clear,190,2013-09-06 07:53:00
3:53 AM,64.0,42.1,45,30.02,5.0,WSW,3.5,-,N/A,,Haze,250,2013-09-06 08:53:00
4:53 AM,64.0,43.0,46,30.02,8.0,Calm,Calm,-,N/A,,Clear,0,2013-09-06 09:53:00
5:53 AM,62.1,46.0,56,30.03,10.0,West,5.8,-,N/A,,Clear,280,2013-09-06 10:53:00
6:53 AM,60.1,44.1,55,30.04,10.0,South,4.6,-,N/A,,Clear,180,2013-09-06 11:53:00
7:53 AM,59.0,45.0,60,30.05,10.0,SW,6.9,-,N/A,,Clear,220,2013-09-06 12:53:00
8:53 AM,70.0,45.0,41,30.05,4.0,WSW,3.5,-,N/A,,Haze,240,2013-09-06 13:53:00
9:53 AM,80.1,43.0,27,30.04,10.0,SSW,10.4,-,N/A,,Clear,210,2013-09-06 14:53:00
10:53 AM,84.9,41.0,21,30.03,10.0,South,11.5,-,N/A,,Clear,190,2013-09-06 15:53:00
11:53 AM,89.1,42.1,19,30.03,10.0,SSW,10.4,-,N/A,,Clear,210,2013-09-06 16:53:00
12:53 PM,90.0,43.0,19,30.03,10.0,South,9.2,-,N/A,,Clear,170,2013-09-06 17:53:00
1:53 PM,93.9,41.0,16,30.00,10.0,SSE,9.2,18.4,N/A,,Clear,160,2013-09-06 18:53:00
2:53 PM,93.0,42.1,17,29.97,10.0,South,13.8,21.9,N/A,,Clear,190,2013-09-06 19:53:00
3:53 PM,95.0,43.0,17,29.94,10.0,South,15.0,23.0,N/A,,Clear,190,2013-09-06 20:53:00
4:53 PM,95.0,43.0,17,29.92,10.0,SSW,10.4,19.6,N/A,,Clear,210,2013-09-06 21:53:00
5:53 PM,95.0,43.0,17,29.91,10.0,SSW,12.7,-,N/A,,Clear,200,2013-09-06 22:53:00
6:53 PM,93.0,44.1,18,29.91,10.0,South,13.8,-,N/A,,Partly Cloudy,180,2013-09-06 23:53:00
7:53 PM,88.0,44.1,22,29.93,10.0,South,10.4,-,N/A,,Clear,180,2013-09-07 00:53:00
8:53 PM,84.0,45.0,25,29.92,10.0,SSE,9.2,-,N/A,,Clear,160,2013-09-07 01:53:00
9:53 PM,79.0,46.0,31,29.93,10.0,South,9.2,-,N/A,,Clear,180,2013-09-07 02:53:00
10:53 PM,75.9,46.9,36,29.94,10.0,South,9.2,-,N/A,,Clear,170,2013-09-07 03:53:00
11:53 PM,70.0,48.0,46,29.96,10.0,South,9.2,-,N/A,,Clear,180,2013-09-07 04:53:00